Location: Lecco
(45.8566°N, 9.3977°E)
Time: 20:38:54
(UTC+02:00)

S-56A Canister/Altair - Pass Details

Date: 29 July 2019
Orbit: 633 x 2499 km, 38.9° (Epoch: 23 August)

Event Time Altitude Azimuth Distance (km) Brightness Sun altitude
Rises 03:28:09 0° 180° (S) 3,881 - -19.9°
Exits shadow 03:31:48 - 158° (SSE) 3,339 10.4 -19.6°
Reaches altitude 10° 03:32:25 10° 154° (SSE) 3,294 10.4 -19.5°
Maximum altitude 03:36:06 14° 127° (SE) 3,338 10.7 -19.2°
Drops below altitude 10° 03:40:22 10° 102° (ESE) 3,960 11.4 -18.8°
Sets 03:46:36 0° 81° (E) 5,407 12.5 -18.2°
